User: anonymous   Login
Location: Bothwell
(42.3833°S, 147.0000°E)
Time: 23:10:18
(UTC+10:00)
Language:

JY1SAT - Orbit

View from above orbital plane
View from above orbital plane
View from above satellite
View from above satellite

Ground track
Ground track

The orbit data is extracted from the following two-line orbital elements,

1 43803U 18099AX  24206.19827755  .00011910  00000-0  77219-3 0  9994
2 43803  97.5168 264.0598 0010423 169.0135 191.1323 15.08206938308277
Epoch (UTC): 24 July 2024 04:45:31
Eccentricity: 0.0010423
inclination: 97.5168°
perigee height: 534 km
apogee height: 549 km
right ascension of ascending node: 264.0598°
argument of perigee: 169.0135°
revolutions per day: 15.08206938
mean anomaly at epoch: 191.1323°
orbit number at epoch: 30827

The dashed part of the orbit path shows where the satellite is in the earth's shadow,  

DLR